Modesto, CA

7:21 AM PDT on July 28, 2017 (GMT -0700)
Modesto City-County-Sham

Weather History for KMOD - November, 2012

Change the Weather History Date:

Friday, November 16, 2012

  Actual Average Record
Temperature  
Mean Temperature 56 °F -  
Max Temperature 63 °F 65 °F 79 °F (2008)
Min Temperature 48 °F 45 °F 27 °F (1964)
Degree Days  
Heating Degree Days 9 10  
Month to date heating degree days 139 121  
Since 1 July heating degree days 198 184  
Cooling Degree Days 0 0  
Month to date cooling degree days 1 0  
Year to date cooling degree days 1710 1696  
Growing Degree Days 5 (Base 50)    
Moisture  
Dew Point 48 °F    
Average Humidity 81    
Maximum Humidity 93    
Minimum Humidity 60    
Precipitation  
Precipitation 0.02 in 0.04 in 0.93 in (1965)
Month to date precipitation 0.19 0.65  
Year to date precipitation 7.16 10.36  
Since 1 July precipitation 0.31  
Snow  
Snow 0.00 in - - ()
Month to date snowfall 0.0  
Since 1 July snowfall 0.0  
Since 1 September snowfall 0.0  
Snow Depth -    
Sea Level Pressure  
Sea Level Pressure 29.98 in    
Wind  
Wind Speed 3 mph (SE)    
Max Wind Speed 14 mph    
Max Gust Speed 20 mph    
Visibility 6 miles    
Events Rain    
T = Trace of Precipitation, MM = Missing Value Source: NWS Daily Summary

Daily Weather History Graph

Daily Weather History Graph

Search for Another Location

Airport or City:

Trip Planner

Search our weather history database for the weather conditions in past years. The results will help you decide how hot, cold, wet, or windy it might be!

Date:

Astronomy

Nov. 16, 2012 Rise Set
Actual Time 6:45 AM PST 4:51 PM PST
Civil Twilight 6:17 AM PST 5:19 PM PST
Nautical Twilight 5:45 AM PST 5:51 PM PST
Astronomical Twilight 5:14 AM PST 6:22 PM PST
Moon 9:43 AM PST (11/16) 7:58 PM PST (11/16)
Length of Visible Light 11h 02m
Length of Day
10h 06m
Waxing Crescent, 12% of the Moon is Illuminated
Nov 16
Waxing Crescent
Nov 20
First Quarter
Nov 28
Full
Dec 6
Last Quarter
Dec 13
New

Hourly Weather History & Observations

Time (PST) Temp. Dew Point Humidity Pressure Visibility Wind Dir Wind Speed Gust Speed Precip Events Conditions
12:53 AM 50.0 °F 44.1 °F 80% 30.00 in 4.0 mi Calm Calm - 0.00 in   Haze
1:53 AM 48.9 °F 46.0 °F 90% 30.01 in 2.5 mi Calm Calm - 0.01 in   Overcast
2:26 AM 50.0 °F 46.4 °F 87% 29.99 in 3.0 mi Calm Calm - N/A   Scattered Clouds
2:53 AM 48.0 °F 46.0 °F 93% 30.00 in 2.0 mi Calm Calm - N/A   Mostly Cloudy
3:09 AM 48.2 °F 46.4 °F 93% 29.99 in 3.0 mi Calm Calm - N/A   Overcast
3:53 AM 48.9 °F 46.0 °F 90% 29.99 in 3.0 mi WSW 4.6 mph - N/A   Overcast
4:53 AM 50.0 °F 46.0 °F 86% 29.99 in 3.0 mi Calm Calm - N/A   Mostly Cloudy
5:05 AM 50.0 °F 46.4 °F 87% 29.99 in 2.5 mi SSW 4.6 mph - N/A   Mostly Cloudy
5:12 AM 50.0 °F 46.4 °F 87% 29.99 in 3.0 mi SW 3.5 mph - N/A   Mostly Cloudy
5:53 AM 51.1 °F 46.9 °F 86% 29.99 in 4.0 mi Calm Calm - 0.01 in Rain Light Rain
6:09 AM 48.2 °F 46.4 °F 93% 29.99 in 2.0 mi Calm Calm - 0.00 in   Overcast
6:44 AM 48.2 °F 46.4 °F 93% 30.00 in 1.5 mi Calm Calm - 0.00 in   Mostly Cloudy
6:53 AM 48.9 °F 46.9 °F 93% 30.00 in 3.0 mi ESE 3.5 mph - 0.00 in   Mostly Cloudy
7:53 AM 50.0 °F 46.9 °F 89% 30.01 in 3.0 mi Calm Calm - N/A   Overcast
8:00 AM 50.0 °F 46.4 °F 87% 30.01 in 2.5 mi ESE 4.6 mph - N/A   Overcast
8:07 AM 51.8 °F 46.4 °F 82% 30.01 in 3.0 mi ESE 4.6 mph - N/A   Haze
8:53 AM 52.0 °F 46.9 °F 83% 30.03 in 3.0 mi ESE 3.5 mph - N/A   Haze
9:53 AM 55.0 °F 46.9 °F 74% 30.02 in 4.0 mi SE 5.8 mph - 0.00 in   Haze
10:53 AM 57.0 °F 48.0 °F 72% 30.02 in 7.0 mi SSE 10.4 mph 18.4 mph N/A   Mostly Cloudy
11:53 AM 59.0 °F 48.9 °F 69% 30.01 in 9.0 mi SSE 8.1 mph 17.3 mph 0.00 in Rain Light Rain
12:53 PM 60.1 °F 52.0 °F 75% 30.00 in 10.0 mi SSE 8.1 mph - 0.00 in Rain Light Rain
1:53 PM 62.1 °F 51.1 °F 67% 29.97 in 10.0 mi ESE 9.2 mph - 0.00 in   Overcast
2:53 PM 62.1 °F 48.9 °F 62% 29.96 in 10.0 mi ESE 9.2 mph - N/A   Overcast
3:53 PM 62.1 °F 48.0 °F 60% 29.96 in 10.0 mi SE 5.8 mph - 0.00 in   Mostly Cloudy
4:53 PM 60.1 °F 48.9 °F 67% 29.95 in 10.0 mi Calm Calm - 0.00 in   Overcast
5:53 PM 59.0 °F 50.0 °F 72% 29.94 in 10.0 mi SE 3.5 mph - N/A   Overcast
6:53 PM 61.0 °F 48.0 °F 62% 29.93 in 10.0 mi SE 9.2 mph - N/A   Overcast
7:53 PM 60.1 °F 50.0 °F 69% 29.94 in 10.0 mi SE 9.2 mph - N/A   Overcast
8:53 PM 57.9 °F 52.0 °F 81% 29.94 in 9.0 mi SE 9.2 mph - N/A   Mostly Cloudy
9:53 PM 55.9 °F 53.1 °F 90% 29.93 in 7.0 mi ESE 5.8 mph - 0.01 in   Overcast
10:53 PM 57.0 °F 53.1 °F 87% 29.93 in 7.0 mi SSE 5.8 mph - N/A   Overcast
11:53 PM 57.0 °F 53.1 °F 87% 29.92 in 8.0 mi SE 8.1 mph - 0.02 in   Overcast